• In Latvia
  • List of Countries
  • For 7 days
  • Water Temperature
  • Satellite Maps
  • Weather Map
  • Weather Widgets
  • user-avatar
    Login

    Hourly Weather Balceana

    Today, 24 June, Sunday

    Time Temperature Precipitation Wind Pressure Humidity
    00:00 +12°C° 0 mm 2 mps 753 mmHg 78%
    01:00 +10°C° 0 mm 2 mps 754 mmHg 79%
    02:00 +11°C° 0 mm 1 mps 753 mmHg 82%
    03:00 +11°C° 0 mm 1 mps 753 mmHg 82%
    04:00 +11°C° 0 mm 1 mps 754 mmHg 83%
    05:00 +11°C° 0 mm 1 mps 754 mmHg 83%
    06:00 +13°C° 0 mm 2 mps 754 mmHg 75%
    07:00 +15°C° 0 mm 2 mps 754 mmHg 68%
    08:00 +17°C° 0 mm 3 mps 754 mmHg 59%
    09:00 +18°C° 0 mm 3 mps 754 mmHg 54%
    10:00 +19°C° 0 mm 3 mps 754 mmHg 49%
    11:00 +21°C° 0 mm 2 mps 754 mmHg 44%
    12:00 +21°C° 0 mm 2 mps 754 mmHg 42%
    13:00 +23°C° 0 mm 2 mps 754 mmHg 41%
    14:00 +23°C° 0 mm 2 mps 754 mmHg 39%
    15:00 +23°C° 0 mm 2 mps 754 mmHg 39%
    16:00 +23°C° 0 mm 2 mps 754 mmHg 39%
    17:00 +23°C° 0 mm 1 mps 754 mmHg 39%
    18:00 +22°C° 0 mm 1 mps 754 mmHg 43%
    19:00 +20°C° 0 mm 1 mps 754 mmHg 48%
    20:00 +19°C° 0 mm 1 mps 754 mmHg 52%
    21:00 +18°C° 0 mm 1 mps 754 mmHg 54%
    22:00 +16°C° 0 mm 1 mps 754 mmHg 55%
    23:00 +15°C° 0 mm 1 mps 754 mmHg 56%

    Tomorrow, 25 June, Monday

    Time Temperature Precipitation Wind Pressure Humidity
    00:00 +15°C° 0 mm 1 mps 755 mmHg 58%
    01:00 +15°C° 0 mm 1 mps 755 mmHg 59%
    02:00 +14°C° 0 mm 2 mps 755 mmHg 61%
    03:00 +14°C° 0 mm 1 mps 755 mmHg 63%
    04:00 +14°C° 0 mm 1 mps 755 mmHg 65%
    05:00 +14°C° 0 mm 1 mps 755 mmHg 68%
    06:00 +16°C° 0 mm 1 mps 755 mmHg 63%
    07:00 +19°C° 0 mm 1 mps 755 mmHg 58%
    08:00 +20°C° 0 mm 2 mps 756 mmHg 53%
    09:00 +21°C° 0 mm 2 mps 756 mmHg 49%
    10:00 +24°C° 0 mm 2 mps 756 mmHg 44%
    11:00 +25°C° 0 mm 2 mps 756 mmHg 40%
    12:00 +25°C° 0 mm 2 mps 756 mmHg 40%
    13:00 +25°C° 0 mm 2 mps 756 mmHg 40%
    14:00 +25°C° 0 mm 2 mps 755 mmHg 40%
    15:00 +25°C° 0 mm 2 mps 755 mmHg 40%
    16:00 +25°C° 0 mm 2 mps 755 mmHg 40%
    17:00 +25°C° 0 mm 2 mps 755 mmHg 40%
    18:00 +24°C° 0 mm 2 mps 755 mmHg 44%
    19:00 +23°C° 0 mm 1 mps 755 mmHg 48%
    20:00 +21°C° 0 mm 1 mps 755 mmHg 52%
    21:00 +20°C° 0 mm 1 mps 755 mmHg 53%
    22:00 +19°C° 0 mm 1 mps 755 mmHg 54%
    23:00 +18°C° 0 mm 1 mps 756 mmHg 56%

    Day after tomorrow, 26 June, Tuesday

    Time Temperature Precipitation Wind Pressure Humidity
    00:00 +18°C° 0 mm 1 mps 756 mmHg 57%
    01:00 +16°C° 0 mm 1 mps 756 mmHg 58%
    02:00 +16°C° 0 mm 1 mps 755 mmHg 60%
    03:00 +16°C° 0 mm 1 mps 755 mmHg 62%
    04:00 +15°C° 0 mm 1 mps 755 mmHg 64%
    05:00 +15°C° 0 mm 1 mps 755 mmHg 66%
    06:00 +17°C° 0 mm 2 mps 755 mmHg 61%
    07:00 +20°C° 0 mm 3 mps 755 mmHg 57%
    08:00 +22°C° 0 mm 3 mps 755 mmHg 52%
    09:00 +24°C° 0 mm 3 mps 755 mmHg 48%
    10:00 +25°C° 0 mm 3 mps 755 mmHg 44%
    11:00 +27°C° 0 mm 4 mps 755 mmHg 39%
    12:00 +27°C° 0 mm 3 mps 754 mmHg 39%
    13:00 +27°C° 0 mm 3 mps 754 mmHg 38%
    14:00 +27°C° 0 mm 3 mps 754 mmHg 38%
    15:00 +27°C° 0 mm 3 mps 753 mmHg 38%
    16:00 +28°C° 0 mm 3 mps 753 mmHg 38%
    17:00 +28°C° 0 mm 3 mps 753 mmHg 38%
    18:00 +26°C° 0 mm 3 mps 753 mmHg 44%
    19:00 +24°C° 0 mm 3 mps 753 mmHg 51%
    20:00 +21°C° 0 mm 3 mps 753 mmHg 57%
    21:00 +21°C° 0 mm 3 mps 753 mmHg 60%
    22:00 +20°C° 0 mm 3 mps 753 mmHg 63%
    23:00 +19°C° 0 mm 3 mps 753 mmHg 65%

    27 June, Wednesday

    Time Temperature Precipitation Wind Pressure Humidity
    00:00 +18°C° 0 mm 3 mps 752 mmHg 69%
    01:00 +18°C° 0 mm 3 mps 752 mmHg 73%
    02:00 +17°C° 0 mm 3 mps 752 mmHg 76%
    03:00 +17°C° 0 mm 3 mps 752 mmHg 78%
    04:00 +17°C° 0 mm 3 mps 752 mmHg 80%
    05:00 +16°C° 0 mm 3 mps 751 mmHg 81%
    06:00 +18°C° 0 mm 4 mps 751 mmHg 77%
    07:00 +20°C° 0 mm 4 mps 751 mmHg 73%
    08:00 +22°C° 0 mm 5 mps 751 mmHg 69%
    09:00 +23°C° 0 mm 5 mps 751 mmHg 67%
    10:00 +25°C° 0 mm 5 mps 750 mmHg 64%
    11:00 +26°C° 0 mm 6 mps 750 mmHg 61%
    12:00 +26°C° 0.6 mm 5 mps 750 mmHg 63%
    13:00 +26°C° 0.6 mm 5 mps 749 mmHg 65%
    14:00 +26°C° 0.6 mm 5 mps 749 mmHg 66%
    15:00 +26°C° 3.3 mm 5 mps 748 mmHg 71%
    16:00 +25°C° 3.3 mm 5 mps 748 mmHg 76%
    17:00 +23°C° 3.3 mm 5 mps 747 mmHg 81%
    18:00 +23°C° 2.8 mm 4 mps 747 mmHg 83%
    19:00 +24°C° 2.8 mm 3 mps 746 mmHg 86%
    20:00 +22°C° 2.8 mm 3 mps 746 mmHg 88%
    21:00 +21°C° 0.7 mm 2 mps 746 mmHg 90%
    22:00 +21°C° 0.7 mm 2 mps 746 mmHg 91%
    23:00 +21°C° 0.7 mm 1 mps 745 mmHg 92%

    28 June, Thursday

    Time Temperature Precipitation Wind Pressure Humidity
    00:00 +21°C° 0 mm 1 mps 745 mmHg 93%
    01:00 +20°C° 0 mm 1 mps 745 mmHg 93%
    02:00 +20°C° 0 mm 1 mps 745 mmHg 93%
    03:00 +19°C° 0 mm 2 mps 745 mmHg 93%
    04:00 +19°C° 0 mm 2 mps 745 mmHg 94%
    05:00 +19°C° 0 mm 2 mps 746 mmHg 94%
    06:00 +20°C° 0 mm 2 mps 746 mmHg 88%
    07:00 +23°C° 0 mm 2 mps 746 mmHg 81%
    08:00 +24°C° 0 mm 3 mps 746 mmHg 75%
    09:00 +25°C° 0 mm 3 mps 746 mmHg 69%
    10:00 +27°C° 0 mm 3 mps 747 mmHg 63%
    11:00 +28°C° 0 mm 4 mps 747 mmHg 57%
    12:00 +27°C° 0.3 mm 4 mps 747 mmHg 61%
    13:00 +26°C° 0.3 mm 4 mps 747 mmHg 65%
    14:00 +25°C° 0.3 mm 4 mps 747 mmHg 68%
    15:00 +25°C° 0.1 mm 3 mps 747 mmHg 68%
    16:00 +26°C° 0.1 mm 3 mps 747 mmHg 67%
    17:00 +26°C° 0.1 mm 3 mps 747 mmHg 66%
    18:00 +25°C° 0 mm 3 mps 747 mmHg 70%
    19:00 +24°C° 0 mm 2 mps 747 mmHg 73%
    20:00 +23°C° 0 mm 2 mps 747 mmHg 76%
    21:00 +22°C° 0 mm 1 mps 747 mmHg 78%
    22:00 +21°C° 0 mm 1 mps 747 mmHg 80%
    23:00 +21°C° 0 mm 1 mps 747 mmHg 82%

    29 June, Friday

    Time Temperature Precipitation Wind Pressure Humidity
    00:00 +20°C° 0 mm 1 mps 747 mmHg 83%
    01:00 +19°C° 0 mm 2 mps 747 mmHg 84%
    02:00 +19°C° 0 mm 2 mps 746 mmHg 86%
    03:00 +19°C° 0 mm 2 mps 746 mmHg 85%
    04:00 +20°C° 0 mm 1 mps 746 mmHg 85%
    05:00 +20°C° 0 mm 1 mps 746 mmHg 85%
    06:00 +21°C° 0 mm 2 mps 746 mmHg 78%
    07:00 +23°C° 0 mm 2 mps 747 mmHg 72%
    08:00 +25°C° 0 mm 3 mps 747 mmHg 65%
    09:00 +26°C° 0 mm 3 mps 746 mmHg 60%
    10:00 +28°C° 0 mm 4 mps 746 mmHg 55%
    11:00 +29°C° 0 mm 4 mps 746 mmHg 50%
    12:00 +30°C° 0 mm 4 mps 746 mmHg 48%
    13:00 +30°C° 0 mm 5 mps 746 mmHg 46%
    14:00 +32°C° 0 mm 5 mps 745 mmHg 43%
    15:00 +32°C° 0 mm 5 mps 745 mmHg 43%
    16:00 +32°C° 0 mm 5 mps 745 mmHg 43%
    17:00 +32°C° 0 mm 5 mps 745 mmHg 43%
    18:00 +29°C° 0 mm 4 mps 745 mmHg 48%
    19:00 +27°C° 0 mm 4 mps 745 mmHg 53%
    20:00 +25°C° 0 mm 3 mps 745 mmHg 57%
    21:00 +24°C° 0 mm 3 mps 745 mmHg 59%
    22:00 +22°C° 0 mm 3 mps 745 mmHg 61%
    23:00 +22°C° 0 mm 3 mps 745 mmHg 63%
    Show more